CORVUS BC2

Last updated on Sun Dec 14 2025 00:03:50 GMT+0000 (Coordinated Universal Time)

1 42846U 17042X 25346.97066917 .00005417 00000+0 38782-3 0 9990 2 42846 97.3843 150.9856 0014524 34.3709 325.8455 15.04722808459047
UTC large
Height (km)
Speed (km/s)
/
Latitude / Longitude
Inclination (degrees)
Orbital Period (minutes)
Azimuth
Elevation
Range (km)
Doppler Factor

Next 0 passes for location: London (51.5072 / 0.1276)

Sorry there are no passes over London.